Regional Weather Roundup
Issued by NWS

Home | Current Version | Previous Version | Text Only | Print | Product List | Glossary On
Versions: 1 2 3 4 5 6 7 8 9 10 11 12 13 14 15 16 17 18 19 20 21 22 23 24 25 26 27 28 29 30 31 32 33 34 35 36 37 38 39 40 41 42 43 44 45 46 47 48 49 50
640
ASUS45 KBOU 181907
RWRCO

WEATHER ROUNDUP FOR COLORADO
NATIONAL WEATHER SERVICE DENVER/BOULDER CO
100 PM MDT FRI AUG 18 2017

NOTE: "FAIR" INDICATES FEW OR NO CLOUDS BELOW 12000 FEET WITH NO
SIGNIFICANT WEATHER AND/OR OBSTRUCTIONS TO VISIBILITY.

COZ001>005-013-030-031-182000-
...NORTHWEST COLORADO...

CITY           SKY/WX    TMP DP  RH WIND       PRES   REMARKS
CRAIG          FAIR      82  27  13 VRB3      30.28F
HAYDEN         FAIR      78  31  17 W8G17     30.31F
MEEKER         FAIR      81  35  19 S9        30.28F
RABBIT EARS PA FAIR      61  34  36 W5        30.59F
STEAMBOAT SPGS FAIR      76  33  20 CALM      30.32F
WALDEN         FAIR      75  30  19 W13G21    30.40F
$$

COZ006>008-011-182000-
...WEST CENTRAL VALLEYS...

CITY           SKY/WX    TMP DP  RH WIND       PRES   REMARKS
GRAND JUNCTION FAIR      86  36  16 CALM      30.17F
MONTROSE       FAIR      83  39  21 CALM      30.25F
EAGLE          FAIR      82  36  19 W10       30.30F
RIFLE          FAIR      84  33  16 VRB3      30.21F
DELTA          FAIR      87  33  14 S3        30.21F
NUCLA          FAIR      86  30  13 N7        30.29F
$$

COZ017>023-064>068-182000-
...SOUTHWEST COLORADO...

CITY           SKY/WX    TMP DP  RH WIND       PRES   REMARKS
DURANGO        FAIR      82  24  12 SE5       30.31F
CORTEZ         FAIR      86  26  11 VRB5      30.26F
PAGOSA SPRINGS FAIR      79  19  10 W6G17     30.40F
TELLURIDE      FAIR      73  26  17 SW5       30.51F
WOLF CREEK PAS CLOUDY    55  30  38 SW6       30.76F
$$

COZ009-010-012-014-032>034-037-058>063-182000-
...CENTRAL COLORADO...

CITY           SKY/WX    TMP DP  RH WIND       PRES   REMARKS
ASPEN          FAIR      76  34  21 NW12      30.37F
BUENA VISTA    FAIR      77  31  18 E5        30.38F
COPPER MTN     NOT AVBL
BERTHOUD PASS  FAIR      50  45  81 NW21G38   30.72S
COTTONWOOD PAS PTSUNNY   68  23  18 NW6       30.53F
GUNNISON       FAIR      74  37  26 VRB3      30.40F
KREMMLING      FAIR      81  32  17 NW3       30.36F
LEADVILLE      FAIR      66  27  23 W14G24    30.50F
MONARCH PASS   FAIR      59  30  33 SW17G28   30.80F
SALIDA         FAIR      81  33  17 SE5       30.41F
SUNLIGHT       PTSUNNY   57  34  41 S3        30.64F
WILKERSON PASS FAIR      61  32  33 W5        30.67F
$$

COZ069>075-182000-
...SAN LUIS VALLEY/SANGRE DE CRISTO MOUNTAINS...

CITY           SKY/WX    TMP DP  RH WIND       PRES   REMARKS
ALAMOSA        FAIR      76  36  23 VRB6      30.38F
DEL NORTE      FAIR      76  34  22 E3        30.42F
LA VETA PASS   NOT AVBL
SAGUACHE       FAIR      75  36  23 S9        30.40F
$$

COZ035-036-038>040-182000-
...NORTHERN COLORADO FRONT RANGE...

CITY           SKY/WX    TMP DP  RH WIND       PRES   REMARKS
DENVER INTL AP FAIR      84  41  21 NE9       30.19F
DMNS CITY PARK   N/A     83  39  20 E8G15     30.18F
AURORA         MOSUNNY   82  41  22 CALM      30.21F
FRONT RANGE AP FAIR      82  41  23 NE6       30.21F
ERIE MUNI ARPT FAIR      82  42  23 NE6       30.22F
BOULDER MUN AP FAIR      81  45  28 NE6       30.18F
CENTENNIAL     FAIR      83  36  18 VRB6      30.22F
BROOMFIELD     MOSUNNY   81  43  26 SE7       30.22F
FORT COLLINS   FAIR      82  47  29 VRB5      30.18F HAZE
LONGMONT       FAIR      85  43  23 E6        30.20F
$$

COZ041-046-047-076>085-087-088-182000-
...PIKES PEAK/PALMER DIVIDE AND SOUTHERN FOOTHILLS...

CITY           SKY/WX    TMP DP  RH WIND       PRES   REMARKS
COLO. SPRINGS  FAIR      83  47  28 S16G23    30.26F
A. F. ACADEMY  FAIR      82  40  22 S6G17     30.26F
SCHRIEVER AFB  FAIR      78  47  33 S12       30.27F
CHEYENNE MTN   FAIR      77  43  29 SE14G23   30.26F
ELLICOTT       FAIR     N/A N/A N/A S9        30.25F
FALCON         FAIR      78  46  32 S14G20    30.32F
FORT CARSON    FAIR      82  46  28 SE14      30.23F
LIMON          FAIR      82  49  31 N6        30.21F
MONUMENT HILL  FAIR      75  39  27 CALM      30.33F
CANON CITY     SUNNY     88  43  20 W6        30.18F
WALSENBURG     FAIR      88  36  15 E7        30.25F
TRINIDAD       FAIR      84  38  19 E6        30.24F
$$

COZ042>045-048>051-090-091-182000-
...NORTHEAST COLORADO...

CITY           SKY/WX    TMP DP  RH WIND       PRES   REMARKS
GREELEY ARPT   FAIR      82  47  29 CALM      30.17F
AKRON          FAIR      81  44  27 N3        30.17F
BURLINGTON     FAIR      84  54  35 NE13      30.13F
WRAY           NOT AVBL
YUMA           FAIR      81  32  17 N5        30.13F
STERLING       FAIR      81  50  34 CALM      30.12F
HOLYOKE        FAIR      86  46  25 NE5       30.11F
FORT MORGAN    FAIR      83  42  23 SE7       30.17F
$$

COZ086-089-092>099-182000-
...SOUTHEAST COLORADO...

CITY           SKY/WX    TMP DP  RH WIND       PRES   REMARKS
PUEBLO         FAIR      88  44  21 SE12      30.15F
LA JUNTA       FAIR      87  48  25 VRB3      30.13F
LAMAR          FAIR      88  53  30 W7        30.07F
SPRINGFIELD      N/A     87  54  32 SW8       30.12F
$$




USA.gov is the U.S. government's official web portal to all federal, state and local government web resources and services.